This demonstration page uses our WeatherBlox Daily Observations layout. Learn more.

Left ArrowRight Arrow

41.55636, -103.73856

Hourly Observations for November 6, 2021

Temp ( °F °C ) Dew Point ( °F °C ) Humidity (%) Winds ( mph kmh ) Pressure ( in mb ) Visibility ( mi km ) Precip ( " mm )
12:58 am 00:58 Cloudy 48 8.9 26 -3.6 41 41 SW 3 6 30.06 1018 10 16 0.00 0.00
1:58 am 01:58 Clear 45 7.3 26 -3.6 46 46 SSW 9 15 30.09 1019 10 16 0.00 0.00
2:58 am 02:58 Clear 42 5.4 28 -2.4 58 58 SW 8 13 30.07 1018 10 16 0.00 0.00
3:58 am 03:58 Clear 41 5.1 28 -2.5 58 58 SSW 9 15 30.06 1018 10 16 0.00 0.00
4:58 am 04:58 Clear 46 7.7 28 -2.2 50 50 SSW 13 20 30.04 1017 10 16 0.00 0.00
5:58 am 05:58 Mostly Cloudy 47 8.3 28 -2.5 47 47 N 3 6 30.03 1017 10 16 0.00 0.00
6:58 am 06:58 Partly Cloudy 48 8.7 28 -2 47 47 SSW 22 35 30.03 1017 10 16 0.00 0.00
7:58 am 07:58 Partly Cloudy 48 9 28 -2.3 45 45 SSW 22 35 30.04 1017 10 16 0.00 0.00
8:58 am 08:58 Sunny 52 11 27 -2.8 38 38 SSW 20 31 30.03 1017 10 16 0.00 0.00
9:58 am 09:58 Sunny 55 12.5 27 -2.7 35 35 SSW 18 30 30.04 1017 10 16 0.00 0.00
10:58 am 10:58 Sunny 63 17 28 -2.4 27 27 SSW 17 28 29.98 1015 10 16 0.00 0.00
11:58 am 11:58 Sunny 66 18.7 27 -3 23 23 SSW 17 28 29.95 1014 10 16 0.00 0.00
12:58 pm 12:58 Sunny 73 22.9 19 -7.4 13 13 WSW 14 22 29.93 1013 10 16 0.00 0.00
1:58 pm 13:58 Sunny 74 23.2 15 -9.2 11 11 W 13 20 29.92 1013 10 16 0.00 0.00
2:58 pm 14:58 Sunny 75 23.7 17 -8.2 11 11 WSW 6 9 29.90 1013 10 16 0.00 0.00
3:58 pm 15:58 Sunny 71 21.8 16 -8.8 12 12 WSW 7 11 29.90 1013 10 16 0.00 0.00
4:58 pm 16:58 Sunny 65 18.2 33 0.5 31 31 ENE 6 9 29.92 1013 10 16 0.00 0.00
5:58 pm 17:58 Partly Cloudy 59 15 31 -0.7 34 34 SE 12 19 29.94 1014 10 16 0.00 0.00
6:58 pm 18:58 Clear 58 14.4 28 -2.1 32 32 SE 9 15 29.95 1014 10 16 0.00 0.00
7:58 pm 19:58 Clear 49 9.4 30 -1.3 48 48 SSE 7 11 29.95 1014 10 16 0.00 0.00
8:58 pm 20:58 Clear 56 13.4 27 -2.6 33 33 SE 14 22 29.91 1013 10 16 0.00 0.00
9:58 pm 21:58 Partly Cloudy 55 12.5 26 -3.3 33 33 S 7 11 29.89 1012 10 16 0.00 0.00
10:58 pm 22:58 Mostly Clear 51 10.7 29 -1.8 42 42 N 5 7 29.88 1012 10 16 0.00 0.00
11:58 pm 23:58 Clear 48 8.8 22 -5.6 36 36 SSW 3 6 29.88 1012 10 16 0.00 0.00

Powered by AerisWeather